When you browse on this site, cookies collect data to enhance your experience and personalize the content and advertising you see.
Visit our Privacy Policy to learn more. By continuing to use the site, you agree to this use of cookies and data.
  • In Schweiz
  • Länderverzeichnis
  • Für 7 Tage
  • Wassertemperatur
  • Wetterkarte
  • Widgets
  • user-avatar
    Anmelden

    Stündliche Wetter Ipswich

    Heute, 7 Dezember, Samstag

    Zeit Temperatur Niederschläge Wind Luftdruck Luftfeuchtigkeit
    00:00 +6°C° 0 mm 7 m/S 754 mmHg 88%
    01:00 +5°C° 0 mm 7 m/S 755 mmHg 89%
    02:00 +5°C° 0 mm 7 m/S 755 mmHg 90%
    03:00 +5°C° 0 mm 7 m/S 755 mmHg 91%
    04:00 +5°C° 0 mm 7 m/S 756 mmHg 91%
    05:00 +4°C° 0 mm 6 m/S 756 mmHg 91%
    06:00 +4°C° 0 mm 6 m/S 757 mmHg 91%
    07:00 +4°C° 0 mm 6 m/S 757 mmHg 90%
    08:00 +4°C° 0 mm 6 m/S 757 mmHg 90%
    09:00 +4°C° 0 mm 6 m/S 758 mmHg 90%
    10:00 +5°C° 0 mm 6 m/S 758 mmHg 88%
    11:00 +7°C° 0 mm 5 m/S 758 mmHg 85%
    12:00 +8°C° 0 mm 5 m/S 758 mmHg 83%
    13:00 +7°C° 0 mm 5 m/S 758 mmHg 84%
    14:00 +7°C° 0 mm 5 m/S 758 mmHg 85%
    15:00 +7°C° 0 mm 5 m/S 758 mmHg 86%
    16:00 +7°C° 0 mm 5 m/S 757 mmHg 88%
    17:00 +5°C° 0 mm 6 m/S 757 mmHg 89%
    18:00 +5°C° 0 mm 6 m/S 757 mmHg 91%
    19:00 +5°C° 0 mm 6 m/S 756 mmHg 91%
    20:00 +5°C° 0 mm 7 m/S 756 mmHg 91%
    21:00 +5°C° 0 mm 7 m/S 755 mmHg 91%
    22:00 +6°C° 0 mm 8 m/S 754 mmHg 91%
    23:00 +6°C° 0 mm 9 m/S 753 mmHg 90%

    Morgen, 8 Dezember, Sonntag

    Zeit Temperatur Niederschläge Wind Luftdruck Luftfeuchtigkeit
    00:00 +7°C° 0 mm 10 m/S 753 mmHg 90%
    01:00 +7°C° 0.4 mm 11 m/S 751 mmHg 89%
    02:00 +8°C° 0.4 mm 11 m/S 749 mmHg 88%
    03:00 +8°C° 0.4 mm 12 m/S 748 mmHg 88%
    04:00 +9°C° 0.3 mm 12 m/S 747 mmHg 84%
    05:00 +11°C° 0.3 mm 11 m/S 747 mmHg 81%
    06:00 +11°C° 0.3 mm 11 m/S 747 mmHg 77%
    07:00 +9°C° 0 mm 10 m/S 747 mmHg 77%
    08:00 +7°C° 0 mm 9 m/S 748 mmHg 77%
    09:00 +6°C° 0 mm 9 m/S 749 mmHg 77%
    10:00 +6°C° 0 mm 9 m/S 749 mmHg 74%
    11:00 +7°C° 0 mm 9 m/S 749 mmHg 71%
    12:00 +7°C° 0 mm 10 m/S 749 mmHg 68%
    13:00 +7°C° 0.1 mm 10 m/S 748 mmHg 70%
    14:00 +6°C° 0.1 mm 10 m/S 747 mmHg 72%
    15:00 +6°C° 0.1 mm 10 m/S 746 mmHg 73%
    16:00 +5°C° 0 mm 10 m/S 746 mmHg 74%
    17:00 +5°C° 0 mm 10 m/S 746 mmHg 75%
    18:00 +3°C° 0 mm 10 m/S 745 mmHg 76%
    19:00 +3°C° 0 mm 11 m/S 744 mmHg 76%
    20:00 +3°C° 0 mm 11 m/S 743 mmHg 76%
    21:00 +3°C° 0 mm 12 m/S 743 mmHg 75%
    22:00 +3°C° 0.1 mm 12 m/S 742 mmHg 76%
    23:00 +4°C° 0.1 mm 12 m/S 741 mmHg 76%

    übermorgen, 9 Dezember, Montag

    Zeit Temperatur Niederschläge Wind Luftdruck Luftfeuchtigkeit
    00:00 +4°C° 0.1 mm 12 m/S 740 mmHg 76%
    01:00 +4°C° 0.1 mm 12 m/S 739 mmHg 78%
    02:00 +4°C° 0.1 mm 11 m/S 739 mmHg 79%
    03:00 +4°C° 0.1 mm 11 m/S 739 mmHg 81%
    04:00 +4°C° 0.2 mm 12 m/S 740 mmHg 77%
    05:00 +4°C° 0.2 mm 13 m/S 741 mmHg 73%
    06:00 +4°C° 0.2 mm 13 m/S 742 mmHg 69%
    07:00 +4°C° 0 mm 13 m/S 744 mmHg 66%
    08:00 +4°C° 0 mm 13 m/S 745 mmHg 64%
    09:00 +3°C° 0 mm 13 m/S 747 mmHg 61%
    10:00 +4°C° 0 mm 13 m/S 749 mmHg 59%
    11:00 +4°C° 0 mm 13 m/S 750 mmHg 57%
    12:00 +4°C° 0 mm 14 m/S 751 mmHg 55%
    13:00 +3°C° 0 mm 13 m/S 753 mmHg 58%
    14:00 +3°C° 0 mm 13 m/S 754 mmHg 60%
    15:00 +1°C° 0 mm 13 m/S 755 mmHg 62%
    16:00 +2°C° 0.1 mm 12 m/S 757 mmHg 63%
    17:00 +2°C° 0.1 mm 11 m/S 759 mmHg 64%
    18:00 +1°C° 0.1 mm 10 m/S 761 mmHg 65%
    19:00 +1°C° 0 mm 9 m/S 762 mmHg 66%
    20:00 0°C° 0 mm 8 m/S 763 mmHg 68%
    21:00 0°C° 0 mm 7 m/S 764 mmHg 69%
    22:00 -1°C° 0 mm 6 m/S 765 mmHg 72%
    23:00 0°C° 0 mm 5 m/S 765 mmHg 74%

    10 Dezember, Dienstag

    Zeit Temperatur Niederschläge Wind Luftdruck Luftfeuchtigkeit
    00:00 -1°C° 0 mm 4 m/S 766 mmHg 77%
    01:00 -1°C° 0 mm 4 m/S 766 mmHg 77%
    02:00 0°C° 0 mm 3 m/S 766 mmHg 78%
    03:00 0°C° 0 mm 3 m/S 765 mmHg 78%
    04:00 0°C° 0 mm 3 m/S 765 mmHg 78%
    05:00 -1°C° 0 mm 4 m/S 765 mmHg 78%
    06:00 -1°C° 0 mm 4 m/S 765 mmHg 78%
    07:00 0°C° 0 mm 5 m/S 764 mmHg 75%
    08:00 +1°C° 0 mm 6 m/S 764 mmHg 73%
    09:00 +2°C° 0 mm 7 m/S 763 mmHg 70%
    10:00 +2°C° 0 mm 8 m/S 762 mmHg 74%
    11:00 +3°C° 0 mm 9 m/S 761 mmHg 78%
    12:00 +5°C° 0 mm 10 m/S 760 mmHg 82%
    13:00 +4°C° 0.3 mm 11 m/S 759 mmHg 84%
    14:00 +4°C° 0.3 mm 12 m/S 757 mmHg 86%
    15:00 +5°C° 0.3 mm 13 m/S 756 mmHg 88%
    16:00 +5°C° 0.5 mm 13 m/S 754 mmHg 88%
    17:00 +7°C° 0.5 mm 13 m/S 753 mmHg 88%
    18:00 +6°C° 0.5 mm 14 m/S 751 mmHg 88%
    19:00 +8°C° 0.3 mm 14 m/S 751 mmHg 88%
    20:00 +8°C° 0.3 mm 14 m/S 750 mmHg 88%
    21:00 +8°C° 0.3 mm 15 m/S 750 mmHg 88%
    22:00 +7°C° 1.4 mm 12 m/S 751 mmHg 84%
    23:00 +6°C° 1.4 mm 10 m/S 752 mmHg 80%

    11 Dezember, Mittwoch

    Zeit Temperatur Niederschläge Wind Luftdruck Luftfeuchtigkeit
    00:00 +5°C° 1.4 mm 8 m/S 752 mmHg 77%
    01:00 +4°C° 0 mm 8 m/S 753 mmHg 78%
    02:00 +2°C° 0 mm 8 m/S 754 mmHg 79%
    03:00 +2°C° 0 mm 7 m/S 755 mmHg 80%
    04:00 +2°C° 0 mm 7 m/S 755 mmHg 80%
    05:00 +2°C° 0 mm 6 m/S 755 mmHg 80%
    06:00 +1°C° 0 mm 6 m/S 755 mmHg 81%
    07:00 +2°C° 0 mm 6 m/S 755 mmHg 81%
    08:00 +2°C° 0 mm 6 m/S 755 mmHg 80%
    09:00 +2°C° 0 mm 7 m/S 755 mmHg 80%
    10:00 +3°C° 0 mm 7 m/S 755 mmHg 78%
    11:00 +4°C° 0 mm 7 m/S 754 mmHg 76%
    12:00 +5°C° 0 mm 7 m/S 753 mmHg 73%
    13:00 +5°C° 0 mm 6 m/S 753 mmHg 74%
    14:00 +4°C° 0 mm 6 m/S 752 mmHg 75%
    15:00 +5°C° 0 mm 5 m/S 752 mmHg 75%
    16:00 +3°C° 0.8 mm 5 m/S 752 mmHg 80%
    17:00 +2°C° 0.8 mm 5 m/S 751 mmHg 84%
    18:00 +2°C° 0.8 mm 6 m/S 751 mmHg 88%
    19:00 +2°C° 0 mm 6 m/S 752 mmHg 86%
    20:00 0°C° 0 mm 7 m/S 752 mmHg 84%
    21:00 0°C° 0 mm 7 m/S 752 mmHg 82%
    22:00 0°C° 0 mm 7 m/S 752 mmHg 82%
    23:00 0°C° 0 mm 7 m/S 753 mmHg 82%

    12 Dezember, Donnerstag

    Zeit Temperatur Niederschläge Wind Luftdruck Luftfeuchtigkeit
    00:00 0°C° 0 mm 7 m/S 753 mmHg 82%
    01:00 0°C° 0 mm 7 m/S 752 mmHg 82%
    02:00 0°C° 0 mm 7 m/S 752 mmHg 81%
    03:00 0°C° 0 mm 7 m/S 751 mmHg 81%
    04:00 +1°C° 0 mm 9 m/S 751 mmHg 81%
    05:00 +2°C° 0 mm 10 m/S 750 mmHg 81%
    06:00 +3°C° 0 mm 11 m/S 749 mmHg 81%
    07:00 +4°C° 0 mm 11 m/S 748 mmHg 80%
    08:00 +4°C° 0 mm 11 m/S 747 mmHg 80%
    09:00 +6°C° 0 mm 11 m/S 746 mmHg 80%
    10:00 +5°C° 0.1 mm 12 m/S 744 mmHg 81%
    11:00 +7°C° 0.1 mm 13 m/S 742 mmHg 83%
    12:00 +6°C° 0.1 mm 15 m/S 741 mmHg 84%
    13:00 +6°C° 2.3 mm 15 m/S 739 mmHg 85%
    14:00 +6°C° 2.3 mm 15 m/S 737 mmHg 87%
    15:00 +6°C° 2.3 mm 15 m/S 735 mmHg 89%
    16:00 +7°C° 0.5 mm 12 m/S 734 mmHg 89%
    17:00 +7°C° 0.5 mm 10 m/S 733 mmHg 88%
    18:00 +8°C° 0.5 mm 7 m/S 732 mmHg 88%
    19:00 +7°C° 0.5 mm 8 m/S 731 mmHg 88%
    20:00 +6°C° 0.5 mm 9 m/S 730 mmHg 87%
    21:00 +6°C° 0.5 mm 10 m/S 729 mmHg 86%
    22:00 +6°C° 0.4 mm 11 m/S 729 mmHg 85%
    23:00 +4°C° 0.4 mm 11 m/S 728 mmHg 85%
    Mehr zeigen